Location: Barcelona
(41.3830°N, 2.1830°E)
Time: 00:56:47
(UTC+02:00)

ISS - Pass Details

Date: 18 July 2019
Orbit: 409 x 418 km, 51.6° (Epoch: 23 July)

Event Time Altitude Azimuth Distance (km) Brightness Sun altitude
Rises 04:41:11 0° 307° (NW) 2,345 0.0 -16.9°
Reaches altitude 10° 04:43:18 10° 311° (NW) 1,479 -1.0 -16.7°
Maximum altitude 04:46:35 62° 33° (NNE) 464 -3.3 -16.3°
Drops below altitude 10° 04:49:51 10° 115° (ESE) 1,469 -0.8 -15.9°
Sets 04:51:57 0° 119° (ESE) 2,326 0.2 -15.6°
